| time (UTC) | temp F | wind direction | speed MPH | gust MPH | rain 1hr in | rain 24hr in | rain mn in | humidity % | barometer mb |
| 20260507215003 | 67 | 225 | 10.0 | 18.0 | 0.00 | 0.00 | 0.00 | 53 | 1008.9 |
| 20260507214044 | 68 | 225 | 10.0 | 16.0 | 0.00 | 0.00 | 0.00 | 50 | 1009.1 |
| 20260507213003 | 68 | 203 | 10.0 | 15.0 | 0.00 | 0.00 | 0.00 | 52 | 1009.4 |
| 20260507212003 | 68 | 248 | 8.0 | 11.0 | 0.00 | 0.00 | 0.00 | 52 | 1009.4 |
| 20260507211003 | 67 | 203 | 11.0 | 13.0 | 0.00 | 0.00 | 0.00 | 54 | 1009.4 |
| 20260507210005 | 67 | 203 | 12.0 | 19.0 | 0.00 | 0.00 | 0.00 | 52 | 1009.6 |
| 20260507205003 | 67 | 203 | 10.0 | 15.0 | 0.00 | 0.00 | 0.00 | 57 | 1009.8 |
| 20260507204003 | 67 | 225 | 8.0 | 13.0 | 0.00 | 0.00 | 0.00 | 53 | 1010.2 |
| 20260507203003 | 67 | 248 | 12.0 | 21.0 | 0.00 | 0.00 | 0.00 | 58 | 1010.4 |
| 20260507202023 | 67 | 203 | 9.0 | 14.0 | 0.00 | 0.00 | 0.00 | 58 | 1010.5 |
| 20260507201003 | 67 | 248 | 8.0 | 12.0 | 0.00 | 0.00 | 0.00 | 57 | 1010.7 |
| 20260507200004 | 66 | 203 | 6.0 | 12.0 | 0.00 | 0.00 | 0.00 | 58 | 1010.9 |
| 20260507195003 | 66 | 180 | 12.0 | 21.0 | 0.00 | 0.00 | 0.00 | 58 | 1010.9 |
| 20260507194003 | 65 | 248 | 13.0 | 17.0 | 0.00 | 0.00 | 0.00 | 60 | 1010.9 |
| 20260507193003 | 65 | 248 | 9.0 | 16.0 | 0.00 | 0.00 | 0.00 | 59 | 1011.1 |
| 20260507192003 | 64 | 225 | 10.0 | 15.0 | 0.00 | 0.00 | 0.00 | 59 | 1011.2 |
| 20260507191003 | 64 | 225 | 12.0 | 20.0 | 0.00 | 0.00 | 0.00 | 57 | 1011.4 |
| 20260507190005 | 64 | 225 | 11.0 | 14.0 | 0.00 | 0.00 | 0.00 | 60 | 1011.6 |
| 20260507185003 | 64 | 225 | 12.0 | 21.0 | 0.00 | 0.00 | 0.00 | 60 | 1011.6 |
| 20260507184003 | 63 | 270 | 8.0 | 11.0 | 0.00 | 0.00 | 0.00 | 63 | 1011.9 |
| 20260507183004 | 63 | 225 | 8.0 | 21.0 | 0.00 | 0.00 | 0.00 | 61 | 1012.1 |
| 20260507182023 | 64 | 225 | 8.0 | 13.0 | 0.00 | 0.00 | 0.00 | 63 | 1012.2 |
| 20260507181003 | 62 | 248 | 14.0 | 18.0 | 0.00 | 0.00 | 0.00 | 60 | 1012.3 |
| 20260507180003 | 62 | 225 | 12.0 | 16.0 | 0.00 | 0.00 | 0.00 | 62 | 1012.6 |
| 20260507175003 | 61 | 203 | 9.0 | 14.0 | 0.00 | 0.00 | 0.00 | 63 | 1012.7 |
| 20260507174003 | 61 | 225 | 9.0 | 16.0 | 0.00 | 0.00 | 0.00 | 65 | 1013.0 |
| 20260507173003 | 61 | 248 | 7.0 | 11.0 | 0.00 | 0.00 | 0.00 | 64 | 1012.8 |
| 20260507172003 | 62 | 248 | 10.0 | 18.0 | 0.00 | 0.00 | 0.00 | 64 | 1013.0 |
| 20260507171003 | 61 | 203 | 7.0 | 11.0 | 0.00 | 0.00 | 0.00 | 64 | 1013.2 |
| 20260507170008 | 61 | 225 | 12.0 | 17.0 | 0.00 | 0.00 | 0.00 | 63 | 1013.2 |
| 20260507165003 | 61 | 225 | 10.0 | 15.0 | 0.00 | 0.00 | 0.00 | 62 | 1013.5 |
| 20260507164003 | 60 | 248 | 9.0 | 13.0 | 0.00 | 0.00 | 0.00 | 64 | 1013.4 |
| 20260507163003 | 60 | 225 | 12.0 | 15.0 | 0.00 | 0.00 | 0.00 | 62 | 1013.4 |
| 20260507162002 | 60 | 225 | 10.0 | 14.0 | 0.00 | 0.00 | 0.00 | 64 | 1013.4 |
| 20260507161002 | 60 | 225 | 10.0 | 15.0 | 0.00 | 0.00 | 0.00 | 67 | 1013.4 |
| 20260507160005 | 59 | 203 | 12.0 | 15.0 | 0.00 | 0.00 | 0.00 | 66 | 1013.5 |
| 20260507155002 | 59 | 248 | 13.0 | 18.0 | 0.00 | 0.00 | 0.00 | 65 | 1013.6 |
| 20260507154003 | 59 | 225 | 12.0 | 16.0 | 0.00 | 0.00 | 0.00 | 65 | 1013.8 |
| 20260507153002 | 59 | 270 | 5.0 | 9.0 | 0.00 | 0.00 | 0.00 | 66 | 1013.9 |
| 20260507152002 | 58 | 225 | 10.0 | 16.0 | 0.00 | 0.00 | 0.00 | 65 | 1013.9 |
| 20260507151023 | 58 | 248 | 4.0 | 8.0 | 0.00 | 0.00 | 0.00 | 66 | 1014.0 |
| 20260507150027 | 58 | 203 | 8.0 | 12.0 | 0.00 | 0.00 | 0.00 | 67 | 1014.0 |
| 20260507145002 | 58 | 203 | 5.0 | 8.0 | 0.00 | 0.00 | 0.00 | 69 | 1014.1 |
| 20260507144002 | 57 | 225 | 9.0 | 13.0 | 0.00 | 0.00 | 0.00 | 69 | 1014.1 |
| 20260507143023 | 56 | 203 | 9.0 | 10.0 | 0.00 | 0.00 | 0.00 | 69 | 1014.1 |
| 20260507142002 | 56 | 225 | 10.0 | 14.0 | 0.00 | 0.00 | 0.00 | 71 | 1014.2 |
| 20260507141002 | 56 | 225 | 3.0 | 4.0 | 0.00 | 0.00 | 0.00 | 73 | 1014.3 |
| 20260507140008 | 55 | 248 | 8.0 | 11.0 | 0.00 | 0.00 | 0.00 | 72 | 1014.3 |
| 20260507135042 | 54 | 248 | 5.0 | 7.0 | 0.00 | 0.00 | 0.00 | 75 | 1014.4 |
| 20260507134002 | 53 | 248 | 5.0 | 7.0 | 0.00 | 0.00 | 0.00 | 75 | 1014.3 |
| 20260507133007 | 52 | 248 | 6.0 | 8.0 | 0.00 | 0.00 | 0.00 | 77 | 1014.5 |
| 20260507132002 | 52 | 248 | 5.0 | 6.0 | 0.00 | 0.00 | 0.00 | 76 | 1014.4 |
| 20260507131002 | 51 | 248 | 3.0 | 5.0 | 0.00 | 0.00 | 0.00 | 77 | 1014.5 |
| 20260507130007 | 50 | 203 | 4.0 | 7.0 | 0.00 | 0.00 | 0.00 | 77 | 1014.6 |
| 20260507125022 | 49 | 203 | 4.0 | 5.0 | 0.00 | 0.00 | 0.00 | 77 | 1014.8 |
| 20260507124023 | 49 | 225 | 5.0 | 7.0 | 0.00 | 0.00 | 0.00 | 78 | 1014.7 |
| 20260507123002 | 48 | 225 | 4.0 | 6.0 | 0.00 | 0.00 | 0.00 | 78 | 1014.6 |
| 20260507122002 | 47 | 203 | 4.0 | 6.0 | 0.00 | 0.00 | 0.00 | 79 | 1014.7 |
| 20260507121022 | 47 | 225 | 2.0 | 5.0 | 0.00 | 0.00 | 0.00 | 79 | 1014.6 |
| 20260507120022 | 46 | 203 | 3.0 | 5.0 | 0.00 | 0.00 | 0.00 | 80 | 1014.6 |
| 20260507115003 | 46 | 203 | 4.0 | 6.0 | 0.00 | 0.00 | 0.00 | 80 | 1014.5 |
| 20260507114002 | 45 | 225 | 2.0 | 3.0 | 0.00 | 0.00 | 0.00 | 81 | 1014.5 |
| 20260507113002 | 45 | 203 | 3.0 | 5.0 | 0.00 | 0.00 | 0.00 | 81 | 1014.4 |
| 20260507112003 | 45 | 203 | 4.0 | 5.0 | 0.00 | 0.00 | 0.00 | 80 | 1014.3 |
| 20260507111022 | 45 | 203 | 3.0 | 5.0 | 0.00 | 0.00 | 0.00 | 80 | 1014.3 |
| 20260507110007 | 45 | 203 | 2.0 | 4.0 | 0.00 | 0.00 | 0.00 | 79 | 1014.3 |
| 20260507105002 | 45 | 203 | 2.0 | 3.0 | 0.00 | 0.00 | 0.00 | 79 | 1014.4 |
| 20260507104002 | 45 | 203 | 3.0 | 4.0 | 0.00 | 0.00 | 0.00 | 79 | 1014.3 |
| 20260507103002 | 45 | 225 | 2.0 | 3.0 | 0.00 | 0.00 | 0.00 | 79 | 1014.4 |
| 20260507102002 | 45 | 225 | 3.0 | 4.0 | 0.00 | 0.00 | 0.00 | 79 | 1014.4 |
| 20260507101002 | 45 | 225 | 2.0 | 4.0 | 0.00 | 0.00 | 0.00 | 79 | 1014.2 |
| 20260507100009 | 45 | 225 | 3.0 | 4.0 | 0.00 | 0.00 | 0.00 | 79 | 1014.4 |
| 20260507095024 | 45 | 225 | 2.0 | 3.0 | 0.00 | 0.00 | 0.00 | 79 | 1014.5 |
| 20260507094004 | 45 | 203 | 2.0 | 3.0 | 0.00 | 0.00 | 0.00 | 79 | 1014.5 |
| 20260507093004 | 45 | 225 | 2.0 | 4.0 | 0.00 | 0.00 | 0.00 | 78 | 1014.6 |
| 20260507092003 | 45 | 225 | 3.0 | 4.0 | 0.00 | 0.00 | 0.00 | 77 | 1014.6 |
| 20260507091003 | 45 | 248 | 4.0 | 4.0 | 0.00 | 0.00 | 0.00 | 77 | 1014.6 |
| 20260507090009 | 46 | 248 | 2.0 | 3.0 | 0.00 | 0.00 | 0.00 | 76 | 1014.6 |
| 20260507085003 | 46 | 203 | 2.0 | 5.0 | 0.00 | 0.00 | 0.00 | 75 | 1014.6 |
| 20260507084024 | 46 | 225 | 2.0 | 3.0 | 0.00 | 0.00 | 0.00 | 74 | 1014.6 |
| 20260507083024 | 46 | 248 | 3.0 | 6.0 | 0.00 | 0.00 | 0.00 | 74 | 1014.8 |
| 20260507082003 | 46 | 248 | 2.0 | 3.0 | 0.00 | 0.00 | 0.00 | 75 | 1014.8 |
| 20260507081003 | 46 | 248 | 2.0 | 4.0 | 0.00 | 0.00 | 0.00 | 75 | 1014.7 |
| 20260507080027 | 47 | 225 | 1.0 | 1.0 | 0.00 | 0.00 | 0.00 | 75 | 1014.6 |
| 20260507075003 | 46 | 225 | 1.0 | 2.0 | 0.00 | 0.00 | 0.00 | 76 | 1014.5 |
| 20260507074003 | 46 | 0.0 | 1.0 | 0.00 | 0.00 | 0.00 | 78 | 1014.5 | |
| 20260507073004 | 46 | 225 | 1.0 | 2.0 | 0.00 | 0.00 | 0.00 | 78 | 1014.6 |
| 20260507072003 | 47 | 225 | 1.0 | 1.0 | 0.00 | 0.00 | 0.00 | 77 | 1014.7 |
| 20260507071004 | 48 | 225 | 2.0 | 3.0 | 0.00 | 0.00 | 0.00 | 76 | 1014.8 |
| 20260507070012 | 48 | 225 | 1.0 | 2.0 | 0.00 | 0.00 | 0.00 | 75 | 1015.1 |
| 20260507065003 | 48 | 225 | 2.0 | 3.0 | 0.00 | 0.02 | 0.00 | 76 | 1015.2 |
| 20260507064003 | 48 | 225 | 1.0 | 2.0 | 0.00 | 0.02 | 0.00 | 75 | 1015.2 |
| 20260507063023 | 48 | 225 | 2.0 | 3.0 | 0.00 | 0.02 | 0.00 | 75 | 1015.3 |
| 20260507062003 | 48 | 203 | 1.0 | 2.0 | 0.00 | 0.02 | 0.00 | 78 | 1015.2 |
| 20260507061003 | 48 | 0.0 | 1.0 | 0.00 | 0.02 | 0.00 | 79 | 1015.2 | |
| 20260507060008 | 48 | 203 | 1.0 | 2.0 | 0.00 | 0.02 | 0.00 | 77 | 1015.2 |
| 20260507055023 | 49 | 225 | 2.0 | 2.0 | 0.00 | 0.02 | 0.00 | 77 | 1015.3 |
| 20260507054023 | 48 | 225 | 1.0 | 1.0 | 0.00 | 0.02 | 0.00 | 77 | 1015.2 |
| 20260507053005 | 48 | 225 | 1.0 | 2.0 | 0.00 | 0.02 | 0.00 | 77 | 1015.3 |
| 20260507052023 | 48 | 225 | 1.0 | 2.0 | 0.00 | 0.02 | 0.00 | 75 | 1015.3 |
| 20260507051003 | 48 | 225 | 2.0 | 2.0 | 0.00 | 0.02 | 0.00 | 76 | 1015.2 |
| 20260507050103 | 48 | 225 | 1.0 | 2.0 | 0.00 | 0.02 | 0.00 | 73 | 1015.3 |
| 20260507045102 | 48 | 225 | 2.0 | 3.0 | 0.00 | 0.02 | 0.02 | 72 | 1015.4 |
| 20260507044102 | 47 | 225 | 2.0 | 3.0 | 0.00 | 0.02 | 0.02 | 74 | 1015.4 |
| 20260507043122 | 45 | 270 | 1.0 | 2.0 | 0.00 | 0.02 | 0.02 | 79 | 1015.3 |
| 20260507042102 | 45 | 293 | 1.0 | 2.0 | 0.00 | 0.02 | 0.02 | 83 | 1015.1 |
| 20260507041102 | 45 | 0.0 | 1.0 | 0.00 | 0.02 | 0.02 | 82 | 1015.2 | |
| 20260507035004 | 45 | 293 | 1.0 | 2.0 | 0.00 | 0.02 | 0.02 | 79 | 1015.5 |
| 20260507034004 | 46 | 293 | 1.0 | 1.0 | 0.00 | 0.02 | 0.02 | 78 | 1015.4 |
| 20260507033004 | 46 | 315 | 2.0 | 2.0 | 0.00 | 0.02 | 0.02 | 78 | 1015.3 |
| 20260507032005 | 46 | 0.0 | 1.0 | 0.00 | 0.02 | 0.02 | 80 | 1015.3 | |
| 20260507031003 | 47 | 0.0 | 0.0 | 0.00 | 0.02 | 0.02 | 78 | 1015.3 | |
| 20260507030029 | 47 | 0.0 | 1.0 | 0.00 | 0.02 | 0.02 | 72 | 1015.3 | |
| 20260507025004 | 47 | 0.0 | 0.0 | 0.00 | 0.02 | 0.02 | 69 | 1015.3 | |
| 20260507024023 | 47 | 0.0 | 0.0 | 0.00 | 0.02 | 0.02 | 69 | 1015.1 | |
| 20260507023004 | 47 | 0.0 | 0.0 | 0.00 | 0.02 | 0.02 | 73 | 1015.1 | |
| 20260507022003 | 48 | 0.0 | 0.0 | 0.00 | 0.02 | 0.02 | 69 | 1014.9 | |
| 20260507021003 | 48 | 0.0 | 0.0 | 0.00 | 0.02 | 0.02 | 68 | 1014.9 | |
| 20260507020029 | 49 | 0.0 | 0.0 | 0.00 | 0.02 | 0.02 | 70 | 1014.8 | |
| 20260507015004 | 49 | 0.0 | 0.0 | 0.00 | 0.02 | 0.02 | 66 | 1014.7 | |
| 20260507014003 | 50 | 0.0 | 0.0 | 0.00 | 0.02 | 0.02 | 63 | 1014.7 | |
| 20260507013004 | 52 | 0.0 | 0.0 | 0.00 | 0.02 | 0.02 | 58 | 1014.7 | |
| 20260507012003 | 54 | 338 | 2.0 | 2.0 | 0.00 | 0.02 | 0.02 | 48 | 1014.5 |
| 20260507010009 | 55 | 338 | 2.0 | 3.0 | 0.00 | 0.02 | 0.02 | 46 | 1014.4 |
| 20260507005023 | 56 | 315 | 3.0 | 4.0 | 0.00 | 0.02 | 0.02 | 46 | 1014.4 |
| 20260507004025 | 57 | 338 | 3.0 | 4.0 | 0.00 | 0.02 | 0.02 | 45 | 1014.4 |
| 20260507003008 | 57 | 338 | 4.0 | 5.0 | 0.00 | 0.02 | 0.02 | 43 | 1014.4 |
| 20260507002003 | 58 | 338 | 3.0 | 4.0 | 0.00 | 0.02 | 0.02 | 41 | 1014.5 |
| 20260507001003 | 58 | 0 | 9.0 | 12.0 | 0.00 | 0.02 | 0.02 | 41 | 1014.4 |
| 20260507000005 | 58 | 0 | 5.0 | 9.0 | 0.00 | 0.02 | 0.02 | 42 | 1014.3 |
| 20260506235023 | 59 | 338 | 9.0 | 11.0 | 0.00 | 0.02 | 0.02 | 39 | 1014.4 |
| 20260506234004 | 59 | 338 | 10.0 | 12.0 | 0.00 | 0.02 | 0.02 | 39 | 1014.5 |
| 20260506233024 | 59 | 338 | 8.0 | 12.0 | 0.00 | 0.02 | 0.02 | 41 | 1014.4 |
| 20260506232024 | 59 | 315 | 8.0 | 10.0 | 0.00 | 0.02 | 0.02 | 45 | 1014.4 |
| 20260506231003 | 59 | 338 | 10.0 | 13.0 | 0.00 | 0.02 | 0.02 | 40 | 1014.4 |
| 20260506230010 | 59 | 338 | 9.0 | 10.0 | 0.00 | 0.02 | 0.02 | 40 | 1014.3 |
| 20260506225003 | 59 | 0 | 7.0 | 11.0 | 0.00 | 0.02 | 0.02 | 40 | 1014.4 |
| 20260506224003 | 60 | 0 | 12.0 | 14.0 | 0.00 | 0.02 | 0.02 | 41 | 1014.5 |
| 20260506223004 | 60 | 0 | 5.0 | 6.0 | 0.00 | 0.02 | 0.02 | 40 | 1014.4 |
| 20260506222003 | 59 | 315 | 6.0 | 9.0 | 0.00 | 0.02 | 0.02 | 42 | 1014.4 |
| 20260506221003 | 59 | 315 | 11.0 | 13.0 | 0.00 | 0.02 | 0.02 | 42 | 1014.6 |
| 20260506220008 | 60 | 338 | 9.0 | 11.0 | 0.00 | 0.02 | 0.02 | 42 | 1014.7 |